Year,Month,Day,Hour,Minute,Value (Times are PST for temperature in C)
2008,07,01,00,00,17.70
2008,07,01,00,01,17.70
2008,07,01,00,02,17.70
2008,07,01,00,03,17.70
2008,07,01,00,04,17.60
2008,07,01,00,05,17.60
2008,07,01,00,06,17.60
2008,07,01,00,07,17.50
2008,07,01,00,08,17.50
2008,07,01,00,09,17.50
2008,07,01,00,10,17.50
2008,07,01,00,11,17.50
2008,07,01,00,12,17.40
2008,07,01,00,13,17.40
2008,07,01,00,14,17.40
2008,07,01,00,15,17.40
2008,07,01,00,16,17.30
2008,07,01,00,17,17.30
2008,07,01,00,18,17.30
2008,07,01,00,19,17.30
2008,07,01,00,20,17.30
2008,07,01,00,21,17.30
2008,07,01,00,22,17.30
2008,07,01,00,23,17.30
2008,07,01,00,24,17.30
2008,07,01,00,25,17.30
2008,07,01,00,26,17.30
2008,07,01,00,27,17.30
2008,07,01,00,28,17.30
2008,07,01,00,29,17.30
2008,07,01,00,30,17.30
2008,07,01,00,31,17.30
2008,07,01,00,32,17.20
2008,07,01,00,33,17.20
2008,07,01,00,34,17.20
2008,07,01,00,35,17.20
2008,07,01,00,36,17.20
2008,07,01,00,37,17.10
2008,07,01,00,38,17.10
2008,07,01,00,39,17.10
2008,07,01,00,40,17.00
2008,07,01,00,41,17.00
2008,07,01,00,42,16.90
2008,07,01,00,43,16.90
2008,07,01,00,44,16.90
2008,07,01,00,45,16.90
2008,07,01,00,46,16.80
2008,07,01,00,47,16.80
2008,07,01,00,48,16.80
2008,07,01,00,49,16.80
2008,07,01,00,50,16.70
2008,07,01,00,51,16.70
2008,07,01,00,52,16.70
2008,07,01,00,53,16.70
2008,07,01,00,54,16.70
2008,07,01,00,55,16.70
2008,07,01,00,56,16.60
2008,07,01,00,57,16.60
2008,07,01,00,58,16.60
2008,07,01,00,59,16.50
2008,07,01,01,00,16.40
2008,07,01,01,01,16.40
2008,07,01,01,02,16.30
2008,07,01,01,03,16.20
2008,07,01,01,04,16.20
2008,07,01,01,05,16.10
2008,07,01,01,06,16.10
2008,07,01,01,07,16.00
2008,07,01,01,08,16.00
2008,07,01,01,09,15.90
2008,07,01,01,10,15.90
2008,07,01,01,11,15.90
2008,07,01,01,12,15.90
2008,07,01,01,13,15.90
2008,07,01,01,14,15.90
2008,07,01,01,15,15.90
2008,07,01,01,16,15.80
2008,07,01,01,17,15.80
2008,07,01,01,18,15.80
2008,07,01,01,19,15.80
2008,07,01,01,20,15.80
2008,07,01,01,21,15.80
2008,07,01,01,22,15.80
2008,07,01,01,23,15.70
2008,07,01,01,24,15.70
2008,07,01,01,25,15.70
2008,07,01,01,26,15.70
2008,07,01,01,27,15.70
2008,07,01,01,28,15.70
2008,07,01,01,29,15.70
2008,07,01,01,30,15.70
2008,07,01,01,31,15.60
2008,07,01,01,32,15.60
2008,07,01,01,33,15.60
2008,07,01,01,34,15.60
2008,07,01,01,35,15.60
2008,07,01,01,36,15.60
2008,07,01,01,37,15.60
2008,07,01,01,38,15.60
2008,07,01,01,39,15.60
2008,07,01,01,40,15.50
2008,07,01,01,41,15.50
2008,07,01,01,42,15.40
2008,07,01,01,43,15.40
2008,07,01,01,44,15.40
2008,07,01,01,45,15.30
2008,07,01,01,46,15.30
2008,07,01,01,47,15.30
2008,07,01,01,48,15.20
2008,07,01,01,49,15.20
2008,07,01,01,50,15.20
2008,07,01,01,51,15.10
2008,07,01,01,52,15.10
2008,07,01,01,53,15.00
2008,07,01,01,54,15.00
2008,07,01,01,55,15.00
2008,07,01,01,56,15.00
2008,07,01,01,57,15.00
2008,07,01,01,58,15.00
2008,07,01,01,59,15.00
2008,07,01,02,00,15.00
2008,07,01,02,01,15.00
2008,07,01,02,02,15.00
2008,07,01,02,03,15.00
2008,07,01,02,04,15.00
2008,07,01,02,05,15.00
2008,07,01,02,06,15.00
2008,07,01,02,07,14.90
2008,07,01,02,08,14.90
2008,07,01,02,09,14.90
2008,07,01,02,10,14.90
2008,07,01,02,11,14.90
2008,07,01,02,12,14.90
2008,07,01,02,13,14.90
2008,07,01,02,14,14.90
2008,07,01,02,15,14.90
2008,07,01,02,16,14.80
2008,07,01,02,17,14.80
2008,07,01,02,18,14.80
2008,07,01,02,19,14.80
2008,07,01,02,20,14.80
2008,07,01,02,21,14.80
2008,07,01,02,22,14.80
2008,07,01,02,23,14.80
2008,07,01,02,24,14.80
2008,07,01,02,25,14.80
2008,07,01,02,26,14.80
2008,07,01,02,27,14.80
2008,07,01,02,28,14.80
2008,07,01,02,29,14.80
2008,07,01,02,30,14.90
2008,07,01,02,31,15.00
2008,07,01,02,32,15.00
2008,07,01,02,33,15.00
2008,07,01,02,34,15.00
2008,07,01,02,35,15.00
2008,07,01,02,36,15.00
2008,07,01,02,37,15.10
2008,07,01,02,38,15.10
2008,07,01,02,39,15.10
2008,07,01,02,40,15.10
2008,07,01,02,41,15.10
2008,07,01,02,42,15.10
2008,07,01,02,43,15.10
2008,07,01,02,44,15.10
2008,07,01,02,45,15.00
2008,07,01,02,46,15.00
2008,07,01,02,47,15.00
2008,07,01,02,48,15.10
2008,07,01,02,49,15.10
2008,07,01,02,50,15.00
2008,07,01,02,51,15.00
2008,07,01,02,52,15.00
2008,07,01,02,53,15.00
2008,07,01,02,54,15.00
2008,07,01,02,55,15.00
2008,07,01,02,56,15.00
2008,07,01,02,57,15.00
2008,07,01,02,58,15.00
2008,07,01,02,59,15.00
2008,07,01,03,00,15.00
2008,07,01,03,01,15.00
2008,07,01,03,02,15.00
2008,07,01,03,03,15.00
2008,07,01,03,04,15.00
2008,07,01,03,05,15.00
2008,07,01,03,06,15.00
2008,07,01,03,07,15.00
2008,07,01,03,08,15.00
2008,07,01,03,09,15.00
2008,07,01,03,10,15.00
2008,07,01,03,11,15.00
2008,07,01,03,12,15.00
2008,07,01,03,13,15.00
2008,07,01,03,14,15.00
2008,07,01,03,15,15.00
2008,07,01,03,16,15.00
2008,07,01,03,17,15.00
2008,07,01,03,18,15.00
2008,07,01,03,19,15.00
2008,07,01,03,20,15.00
2008,07,01,03,21,15.00
2008,07,01,03,22,15.00
2008,07,01,03,23,15.00
2008,07,01,03,24,15.00
2008,07,01,03,25,15.00
2008,07,01,03,26,14.90
2008,07,01,03,27,14.90
2008,07,01,03,28,14.90
2008,07,01,03,29,14.80
2008,07,01,03,30,14.80
2008,07,01,03,31,14.80
2008,07,01,03,32,14.80
2008,07,01,03,33,14.80
2008,07,01,03,34,14.70
2008,07,01,03,35,14.70
2008,07,01,03,36,14.70
2008,07,01,03,37,14.70
2008,07,01,03,38,14.70
2008,07,01,03,39,14.70
2008,07,01,03,40,14.70
2008,07,01,03,41,14.60
2008,07,01,03,42,14.60
2008,07,01,03,43,14.60
2008,07,01,03,44,14.60
2008,07,01,03,45,14.60
2008,07,01,03,46,14.60
2008,07,01,03,47,14.60
2008,07,01,03,48,14.60
2008,07,01,03,49,14.60
2008,07,01,03,50,14.60
2008,07,01,03,51,14.60
2008,07,01,03,52,14.60
2008,07,01,03,53,14.60
2008,07,01,03,54,14.50
2008,07,01,03,55,14.50
2008,07,01,03,56,14.50
2008,07,01,03,57,14.40
2008,07,01,03,58,14.40
2008,07,01,03,59,14.40
2008,07,01,04,00,14.40
2008,07,01,04,01,14.40
2008,07,01,04,02,14.30
2008,07,01,04,03,14.30
2008,07,01,04,04,14.30
2008,07,01,04,05,14.30
2008,07,01,04,06,14.30
2008,07,01,04,07,14.20
2008,07,01,04,08,14.20
2008,07,01,04,09,14.20
2008,07,01,04,10,14.20
2008,07,01,04,11,14.20
2008,07,01,04,12,14.20
2008,07,01,04,13,14.10
2008,07,01,04,14,14.10
2008,07,01,04,15,14.10
2008,07,01,04,16,14.10
2008,07,01,04,17,14.00
2008,07,01,04,18,14.00
2008,07,01,04,19,14.00
2008,07,01,04,20,13.90
2008,07,01,04,21,13.90
2008,07,01,04,22,13.90
2008,07,01,04,23,13.90
2008,07,01,04,24,13.90
2008,07,01,04,25,13.80
2008,07,01,04,26,13.80
2008,07,01,04,27,13.80
2008,07,01,04,28,13.80
2008,07,01,04,29,13.80
2008,07,01,04,30,13.70
2008,07,01,04,31,13.70
2008,07,01,04,32,13.70
2008,07,01,04,33,13.70
2008,07,01,04,34,13.60
2008,07,01,04,35,13.60
2008,07,01,04,36,13.60
2008,07,01,04,37,13.50
2008,07,01,04,38,13.50
2008,07,01,04,39,13.50
2008,07,01,04,40,13.50
2008,07,01,04,41,13.50
2008,07,01,04,42,13.50
2008,07,01,04,43,13.60
2008,07,01,04,44,13.60
2008,07,01,04,45,13.60
2008,07,01,04,46,13.50
2008,07,01,04,47,13.50
2008,07,01,04,48,13.50
2008,07,01,04,49,13.50
2008,07,01,04,50,13.50
2008,07,01,04,51,13.50
2008,07,01,04,52,13.40
2008,07,01,04,53,13.40
2008,07,01,04,54,13.40
2008,07,01,04,55,13.40
2008,07,01,04,56,13.40
2008,07,01,04,57,13.40
2008,07,01,04,58,13.30
2008,07,01,04,59,13.30
2008,07,01,05,00,13.30
2008,07,01,05,01,13.30
2008,07,01,05,02,13.20
2008,07,01,05,03,13.20
2008,07,01,05,04,13.20
2008,07,01,05,05,13.20
2008,07,01,05,06,13.10
2008,07,01,05,07,13.10
2008,07,01,05,08,13.10
2008,07,01,05,09,13.00
2008,07,01,05,10,13.00
2008,07,01,05,11,12.90
2008,07,01,05,12,12.90
2008,07,01,05,13,12.90
2008,07,01,05,14,12.90
2008,07,01,05,15,12.80
2008,07,01,05,16,12.80
2008,07,01,05,17,12.80
2008,07,01,05,18,12.80
2008,07,01,05,19,12.80
2008,07,01,05,20,12.70
2008,07,01,05,21,12.70
2008,07,01,05,22,12.70
2008,07,01,05,23,12.70
2008,07,01,05,24,12.60
2008,07,01,05,25,12.60
2008,07,01,05,26,12.60
2008,07,01,05,27,12.60
2008,07,01,05,28,12.60
2008,07,01,05,29,12.50
2008,07,01,05,30,12.50
2008,07,01,05,31,12.50
2008,07,01,05,32,12.50
2008,07,01,05,33,12.50
2008,07,01,05,34,12.50
2008,07,01,05,35,12.40
2008,07,01,05,36,12.40
2008,07,01,05,37,12.40
2008,07,01,05,38,12.40
2008,07,01,05,39,12.40
2008,07,01,05,40,12.40
2008,07,01,05,41,12.40
2008,07,01,05,42,12.30
2008,07,01,05,43,12.30
2008,07,01,05,44,12.30
2008,07,01,05,45,12.30
2008,07,01,05,46,12.30
2008,07,01,05,47,12.30
2008,07,01,05,48,12.30
2008,07,01,05,49,12.30
2008,07,01,05,50,12.40
2008,07,01,05,51,12.40
2008,07,01,05,52,12.40
2008,07,01,05,53,12.40
2008,07,01,05,54,12.40
2008,07,01,05,55,12.50
2008,07,01,05,56,12.50
2008,07,01,05,57,12.50
2008,07,01,05,58,12.50
2008,07,01,05,59,12.60
2008,07,01,06,00,12.60
2008,07,01,06,01,12.60
2008,07,01,06,02,12.60
2008,07,01,06,03,12.70
2008,07,01,06,04,12.70
2008,07,01,06,05,12.70
2008,07,01,06,06,12.80
2008,07,01,06,07,12.80
2008,07,01,06,08,12.80
2008,07,01,06,09,12.80
2008,07,01,06,10,12.90
2008,07,01,06,11,12.90
2008,07,01,06,12,12.90
2008,07,01,06,13,12.90
2008,07,01,06,14,13.00
2008,07,01,06,15,13.10
2008,07,01,06,16,13.10
2008,07,01,06,17,13.20
2008,07,01,06,18,13.20
2008,07,01,06,19,13.20
2008,07,01,06,20,13.30
2008,07,01,06,21,13.30
2008,07,01,06,22,13.30
2008,07,01,06,23,13.40
2008,07,01,06,24,13.40
2008,07,01,06,25,13.50
2008,07,01,06,26,13.50
2008,07,01,06,27,13.60
2008,07,01,06,28,13.60
2008,07,01,06,29,13.70
2008,07,01,06,30,13.70
2008,07,01,06,31,13.80
2008,07,01,06,32,13.80
2008,07,01,06,33,13.80
2008,07,01,06,34,13.90
2008,07,01,06,35,14.00
2008,07,01,06,36,14.00
2008,07,01,06,37,14.10
2008,07,01,06,38,14.10
2008,07,01,06,39,14.20
2008,07,01,06,40,14.20
2008,07,01,06,41,14.20
2008,07,01,06,42,14.30
2008,07,01,06,43,14.30
2008,07,01,06,44,14.30
2008,07,01,06,45,14.40
2008,07,01,06,46,14.40
2008,07,01,06,47,14.40
2008,07,01,06,48,14.50
2008,07,01,06,49,14.50
2008,07,01,06,50,14.50
2008,07,01,06,51,14.50
2008,07,01,06,52,14.50
2008,07,01,06,53,14.50
2008,07,01,06,54,14.60
2008,07,01,06,55,14.60
2008,07,01,06,56,14.60
2008,07,01,06,57,14.60
2008,07,01,06,58,14.60
2008,07,01,06,59,14.60
2008,07,01,07,00,14.60
2008,07,01,07,01,14.70
2008,07,01,07,02,14.70
2008,07,01,07,03,14.80
2008,07,01,07,04,14.80
2008,07,01,07,05,14.90
2008,07,01,07,06,14.90
2008,07,01,07,07,15.00
2008,07,01,07,08,15.00
2008,07,01,07,09,15.00
2008,07,01,07,10,15.00
2008,07,01,07,11,15.00
2008,07,01,07,12,15.00
2008,07,01,07,13,15.00
2008,07,01,07,14,15.00
2008,07,01,07,15,15.00
2008,07,01,07,16,15.00
2008,07,01,07,17,15.00
2008,07,01,07,18,15.00
2008,07,01,07,19,15.10
2008,07,01,07,20,15.20
2008,07,01,07,21,15.30
2008,07,01,07,22,15.30
2008,07,01,07,23,15.30
2008,07,01,07,24,15.30
2008,07,01,07,25,15.30
2008,07,01,07,26,15.30
2008,07,01,07,27,15.30
2008,07,01,07,28,15.30
2008,07,01,07,29,15.30
2008,07,01,07,30,15.40
2008,07,01,07,31,15.40
2008,07,01,07,32,15.50
2008,07,01,07,33,15.60
2008,07,01,07,34,15.60
2008,07,01,07,35,15.70
2008,07,01,07,36,15.80
2008,07,01,07,37,15.80
2008,07,01,07,38,15.90
2008,07,01,07,39,16.00
2008,07,01,07,40,16.00
2008,07,01,07,41,16.10
2008,07,01,07,42,16.10
2008,07,01,07,43,16.10
2008,07,01,07,44,16.20
2008,07,01,07,45,16.20
2008,07,01,07,46,16.20
2008,07,01,07,47,16.20
2008,07,01,07,48,16.20
2008,07,01,07,49,16.20
2008,07,01,07,50,16.10
2008,07,01,07,51,16.10
2008,07,01,07,52,16.00
2008,07,01,07,53,16.00
2008,07,01,07,54,16.00
2008,07,01,07,55,16.00
2008,07,01,07,56,16.00
2008,07,01,07,57,16.00
2008,07,01,07,58,16.00
2008,07,01,07,59,15.90
2008,07,01,08,00,15.90
2008,07,01,08,01,15.90
2008,07,01,08,02,15.90
2008,07,01,08,03,16.00
2008,07,01,08,04,16.00
2008,07,01,08,05,16.00
2008,07,01,08,06,16.00
2008,07,01,08,07,16.10
2008,07,01,08,08,16.10
2008,07,01,08,09,16.10
2008,07,01,08,10,16.10
2008,07,01,08,11,16.10
2008,07,01,08,12,16.10
2008,07,01,08,13,16.10
2008,07,01,08,14,16.10
2008,07,01,08,15,16.10
2008,07,01,08,16,16.10
2008,07,01,08,17,16.10
2008,07,01,08,18,16.10
2008,07,01,08,19,16.10
2008,07,01,08,20,16.20
2008,07,01,08,21,16.20
2008,07,01,08,22,16.20
2008,07,01,08,23,16.30
2008,07,01,08,24,16.40
2008,07,01,08,25,16.50
2008,07,01,08,26,16.60
2008,07,01,08,27,16.70
2008,07,01,08,28,16.80
2008,07,01,08,29,16.80
2008,07,01,08,30,16.80
2008,07,01,08,31,16.80
2008,07,01,08,32,16.80
2008,07,01,08,33,16.80
2008,07,01,08,34,16.80
2008,07,01,08,35,16.80
2008,07,01,08,36,16.70
2008,07,01,08,37,16.70
2008,07,01,08,38,16.80
2008,07,01,08,39,16.80
2008,07,01,08,40,16.90
2008,07,01,08,41,16.90
2008,07,01,08,42,16.90
2008,07,01,08,43,17.00
2008,07,01,08,44,17.10
2008,07,01,08,45,17.20
2008,07,01,08,46,17.30
2008,07,01,08,47,17.40
2008,07,01,08,48,17.40
2008,07,01,08,49,17.50
2008,07,01,08,50,17.50
2008,07,01,08,51,17.50
2008,07,01,08,52,17.50
2008,07,01,08,53,17.60
2008,07,01,08,54,17.70
2008,07,01,08,55,17.80
2008,07,01,08,56,17.90
2008,07,01,08,57,18.00
2008,07,01,08,58,18.00
2008,07,01,08,59,18.10
2008,07,01,09,00,18.10
2008,07,01,09,01,18.20
2008,07,01,09,02,18.30
2008,07,01,09,03,18.30
2008,07,01,09,04,18.40
2008,07,01,09,05,18.50
2008,07,01,09,06,18.50
2008,07,01,09,07,18.50
2008,07,01,09,08,18.50
2008,07,01,09,09,18.40
2008,07,01,09,10,18.40
2008,07,01,09,11,18.30
2008,07,01,09,12,18.30
2008,07,01,09,13,18.30
2008,07,01,09,14,18.30
2008,07,01,09,15,18.30
2008,07,01,09,16,18.40
2008,07,01,09,17,18.40
2008,07,01,09,18,18.40
2008,07,01,09,19,18.40
2008,07,01,09,20,18.50
2008,07,01,09,21,18.60
2008,07,01,09,22,18.70
2008,07,01,09,23,18.70
2008,07,01,09,24,18.70
2008,07,01,09,25,18.70
2008,07,01,09,26,18.70
2008,07,01,09,27,18.80
2008,07,01,09,28,18.70
2008,07,01,09,29,18.60
2008,07,01,09,30,18.40
2008,07,01,09,31,18.40
2008,07,01,09,32,18.30
2008,07,01,09,33,18.30
2008,07,01,09,34,18.40
2008,07,01,09,35,18.40
2008,07,01,09,36,18.40
2008,07,01,09,37,18.40
2008,07,01,09,38,18.40
2008,07,01,09,39,18.40
2008,07,01,09,40,18.40
2008,07,01,09,41,18.50
2008,07,01,09,42,18.50
2008,07,01,09,43,18.60
2008,07,01,09,44,18.50
2008,07,01,09,45,18.50
2008,07,01,09,46,18.50
2008,07,01,09,47,18.40
2008,07,01,09,48,18.40
2008,07,01,09,49,18.50
2008,07,01,09,50,18.50
2008,07,01,09,51,18.50
2008,07,01,09,52,18.50
2008,07,01,09,53,18.70
2008,07,01,09,54,18.80
2008,07,01,09,55,18.90
2008,07,01,09,56,19.00
2008,07,01,09,57,19.10
2008,07,01,09,58,19.20
2008,07,01,09,59,19.30
2008,07,01,10,00,19.30
2008,07,01,10,01,19.40
2008,07,01,10,02,19.40
2008,07,01,10,03,19.50
2008,07,01,10,04,19.40
2008,07,01,10,05,19.40
2008,07,01,10,06,19.50
2008,07,01,10,07,19.60
2008,07,01,10,08,19.60
2008,07,01,10,09,19.60
2008,07,01,10,10,19.70
2008,07,01,10,11,19.70
2008,07,01,10,12,19.70
2008,07,01,10,13,19.60
2008,07,01,10,14,19.60
2008,07,01,10,15,19.50
2008,07,01,10,16,19.40
2008,07,01,10,17,19.30
2008,07,01,10,18,19.20
2008,07,01,10,19,19.10
2008,07,01,10,20,19.00
2008,07,01,10,21,19.10
2008,07,01,10,22,19.20
2008,07,01,10,23,19.20
2008,07,01,10,24,19.30
2008,07,01,10,25,19.30
2008,07,01,10,26,19.40
2008,07,01,10,27,19.40
2008,07,01,10,28,19.30
2008,07,01,10,29,19.30
2008,07,01,10,30,19.30
2008,07,01,10,31,19.30
2008,07,01,10,32,19.30
2008,07,01,10,33,19.30
2008,07,01,10,34,19.40
2008,07,01,10,35,19.40
2008,07,01,10,36,19.40
2008,07,01,10,37,19.30
2008,07,01,10,38,19.20
2008,07,01,10,39,19.10
2008,07,01,10,40,19.10
2008,07,01,10,41,19.10
2008,07,01,10,42,19.10
2008,07,01,10,43,19.10
2008,07,01,10,44,19.20
2008,07,01,10,45,19.30
2008,07,01,10,46,19.30
2008,07,01,10,47,19.30
2008,07,01,10,48,19.40
2008,07,01,10,49,19.40
2008,07,01,10,50,19.40
2008,07,01,10,51,19.50
2008,07,01,10,52,19.60
2008,07,01,10,53,19.60
2008,07,01,10,54,19.70
2008,07,01,10,55,19.80
2008,07,01,10,56,19.90
2008,07,01,10,57,20.10
2008,07,01,10,58,20.20
2008,07,01,10,59,20.30
2008,07,01,11,00,20.30
2008,07,01,11,01,20.30
2008,07,01,11,02,20.30
2008,07,01,11,03,20.30
2008,07,01,11,04,20.30
2008,07,01,11,05,20.30
2008,07,01,11,06,20.30
2008,07,01,11,07,20.50
2008,07,01,11,08,20.50
2008,07,01,11,09,20.60
2008,07,01,11,10,20.50
2008,07,01,11,11,20.40
2008,07,01,11,12,20.50
2008,07,01,11,13,20.40
2008,07,01,11,14,20.20
2008,07,01,11,15,20.10
2008,07,01,11,16,20.10
2008,07,01,11,17,20.10
2008,07,01,11,18,20.00
2008,07,01,11,19,20.00
2008,07,01,11,20,20.00
2008,07,01,11,21,19.90
2008,07,01,11,22,19.90
2008,07,01,11,23,19.80
2008,07,01,11,24,19.70
2008,07,01,11,25,19.70
2008,07,01,11,26,19.70
2008,07,01,11,27,19.80
2008,07,01,11,28,19.90
2008,07,01,11,29,19.90
2008,07,01,11,30,20.10
2008,07,01,11,31,20.10
2008,07,01,11,32,20.10
2008,07,01,11,33,20.10
2008,07,01,11,34,20.10
2008,07,01,11,35,20.10
2008,07,01,11,36,20.00
2008,07,01,11,37,20.00
2008,07,01,11,38,19.90
2008,07,01,11,39,19.90
2008,07,01,11,40,19.90
2008,07,01,11,41,20.00
2008,07,01,11,42,20.10
2008,07,01,11,43,20.00
2008,07,01,11,44,20.00
2008,07,01,11,45,20.00
2008,07,01,11,46,20.10
2008,07,01,11,47,20.20
2008,07,01,11,48,20.40
2008,07,01,11,49,20.50
2008,07,01,11,50,20.60
2008,07,01,11,51,20.60
2008,07,01,11,52,20.60
2008,07,01,11,53,20.50
2008,07,01,11,54,20.50
2008,07,01,11,55,20.60
2008,07,01,11,56,20.70
2008,07,01,11,57,20.80
2008,07,01,11,58,20.90
2008,07,01,11,59,21.00
2008,07,01,12,00,21.10
2008,07,01,12,01,21.20
2008,07,01,12,02,21.30
2008,07,01,12,03,21.50
2008,07,01,12,04,21.40
2008,07,01,12,05,21.40
2008,07,01,12,06,21.30
2008,07,01,12,07,21.20
2008,07,01,12,08,21.10
2008,07,01,12,09,21.10
2008,07,01,12,10,21.20
2008,07,01,12,11,21.30
2008,07,01,12,12,21.40
2008,07,01,12,13,21.50
2008,07,01,12,14,21.50
2008,07,01,12,15,21.50
2008,07,01,12,16,21.50
2008,07,01,12,17,21.40
2008,07,01,12,18,21.40
2008,07,01,12,19,21.40
2008,07,01,12,20,21.40
2008,07,01,12,21,21.40
2008,07,01,12,22,21.40
2008,07,01,12,23,21.50
2008,07,01,12,24,21.50
2008,07,01,12,25,21.40
2008,07,01,12,26,21.30
2008,07,01,12,27,21.30
2008,07,01,12,28,21.30
2008,07,01,12,29,21.30
2008,07,01,12,30,21.30
2008,07,01,12,31,21.40
2008,07,01,12,32,21.50
2008,07,01,12,33,21.50
2008,07,01,12,34,21.40
2008,07,01,12,35,21.30
2008,07,01,12,36,21.30
2008,07,01,12,37,21.30
2008,07,01,12,38,21.30
2008,07,01,12,39,21.30
2008,07,01,12,40,21.30
2008,07,01,12,41,21.40
2008,07,01,12,42,21.40
2008,07,01,12,43,21.40
2008,07,01,12,44,21.30
2008,07,01,12,45,21.10
2008,07,01,12,46,20.80
2008,07,01,12,47,20.60
2008,07,01,12,48,20.50
2008,07,01,12,49,20.50
2008,07,01,12,50,20.60
2008,07,01,12,51,20.60
2008,07,01,12,52,20.60
2008,07,01,12,53,20.60
2008,07,01,12,54,20.60
2008,07,01,12,55,20.50
2008,07,01,12,56,20.40
2008,07,01,12,57,20.50
2008,07,01,12,58,20.50
2008,07,01,12,59,20.60
2008,07,01,13,00,20.70
2008,07,01,13,01,20.80
2008,07,01,13,02,20.70
2008,07,01,13,03,20.70
2008,07,01,13,04,20.80
2008,07,01,13,05,20.90
2008,07,01,13,06,21.00
2008,07,01,13,07,20.90
2008,07,01,13,08,20.90
2008,07,01,13,09,21.00
2008,07,01,13,10,21.20
2008,07,01,13,11,21.40
2008,07,01,13,12,21.50
2008,07,01,13,13,21.50
2008,07,01,13,14,21.40
2008,07,01,13,15,21.40
2008,07,01,13,16,21.30
2008,07,01,13,17,21.30
2008,07,01,13,18,21.40
2008,07,01,13,19,21.50
2008,07,01,13,20,21.60
2008,07,01,13,21,21.60
2008,07,01,13,22,21.40
2008,07,01,13,23,21.20
2008,07,01,13,24,21.10
2008,07,01,13,25,21.00
2008,07,01,13,26,20.90
2008,07,01,13,27,20.90
2008,07,01,13,28,20.80
2008,07,01,13,29,20.70
2008,07,01,13,30,20.70
2008,07,01,13,31,20.70
2008,07,01,13,32,20.70
2008,07,01,13,33,20.60
2008,07,01,13,34,20.50
2008,07,01,13,35,20.40
2008,07,01,13,36,20.30
2008,07,01,13,37,20.20
2008,07,01,13,38,20.20
2008,07,01,13,39,20.20
2008,07,01,13,40,20.30
2008,07,01,13,41,20.30
2008,07,01,13,42,20.20
2008,07,01,13,43,20.20
2008,07,01,13,44,20.30
2008,07,01,13,45,20.40
2008,07,01,13,46,20.50
2008,07,01,13,47,20.70
2008,07,01,13,48,20.90
2008,07,01,13,49,21.10
2008,07,01,13,50,21.20
2008,07,01,13,51,21.20
2008,07,01,13,52,21.30
2008,07,01,13,53,21.40
2008,07,01,13,54,21.40
2008,07,01,13,55,21.30
2008,07,01,13,56,21.30
2008,07,01,13,57,21.30
2008,07,01,13,58,21.10
2008,07,01,13,59,21.10
2008,07,01,14,00,21.00
2008,07,01,14,01,21.00
2008,07,01,14,02,21.10
2008,07,01,14,03,21.20
2008,07,01,14,04,21.20
2008,07,01,14,05,21.20
2008,07,01,14,06,21.10
2008,07,01,14,07,21.10
2008,07,01,14,08,21.00
2008,07,01,14,09,21.00
2008,07,01,14,10,21.10
2008,07,01,14,11,21.00
2008,07,01,14,12,21.00
2008,07,01,14,13,21.00
2008,07,01,14,14,21.10
2008,07,01,14,15,21.20
2008,07,01,14,16,21.10
2008,07,01,14,17,21.00
2008,07,01,14,18,21.10
2008,07,01,14,19,21.20
2008,07,01,14,20,21.30
2008,07,01,14,21,21.30
2008,07,01,14,22,21.40
2008,07,01,14,23,21.40
2008,07,01,14,24,21.50
2008,07,01,14,25,21.60
2008,07,01,14,26,21.70
2008,07,01,14,27,21.80
2008,07,01,14,28,21.80
2008,07,01,14,29,21.80
2008,07,01,14,30,21.80
2008,07,01,14,31,21.70
2008,07,01,14,32,21.70
2008,07,01,14,33,21.70
2008,07,01,14,34,21.70
2008,07,01,14,35,21.80
2008,07,01,14,36,21.90
2008,07,01,14,37,22.00
2008,07,01,14,38,22.10
2008,07,01,14,39,22.20
2008,07,01,14,40,22.30
2008,07,01,14,41,22.30
2008,07,01,14,42,22.30
2008,07,01,14,43,22.30
2008,07,01,14,44,22.30
2008,07,01,14,45,22.30
2008,07,01,14,46,22.30
2008,07,01,14,47,22.30
2008,07,01,14,48,22.30
2008,07,01,14,49,22.20
2008,07,01,14,50,22.20
2008,07,01,14,51,22.20
2008,07,01,14,52,22.30
2008,07,01,14,53,22.30
2008,07,01,14,54,22.30
2008,07,01,14,55,22.30
2008,07,01,14,56,22.30
2008,07,01,14,57,22.20
2008,07,01,14,58,22.10
2008,07,01,14,59,22.10
2008,07,01,15,00,22.10
2008,07,01,15,01,22.10
2008,07,01,15,02,22.10
2008,07,01,15,03,22.10
2008,07,01,15,04,22.20
2008,07,01,15,05,22.30
2008,07,01,15,06,22.40
2008,07,01,15,07,22.40
2008,07,01,15,08,22.40
2008,07,01,15,09,22.40
2008,07,01,15,10,22.40
2008,07,01,15,11,22.40
2008,07,01,15,12,22.40
2008,07,01,15,13,22.40
2008,07,01,15,14,22.40
2008,07,01,15,15,22.40
2008,07,01,15,16,22.40
2008,07,01,15,17,22.20
2008,07,01,15,18,22.00
2008,07,01,15,19,21.90
2008,07,01,15,20,21.90
2008,07,01,15,21,21.90
2008,07,01,15,22,21.90
2008,07,01,15,23,21.90
2008,07,01,15,24,22.00
2008,07,01,15,25,22.10
2008,07,01,15,26,22.10
2008,07,01,15,27,22.00
2008,07,01,15,28,21.90
2008,07,01,15,29,21.80
2008,07,01,15,30,21.60
2008,07,01,15,31,21.50
2008,07,01,15,32,21.40
2008,07,01,15,33,21.40
2008,07,01,15,34,21.50
2008,07,01,15,35,21.70
2008,07,01,15,36,21.90
2008,07,01,15,37,22.10
2008,07,01,15,38,22.10
2008,07,01,15,39,22.20
2008,07,01,15,40,22.10
2008,07,01,15,41,22.00
2008,07,01,15,42,21.90
2008,07,01,15,43,21.90
2008,07,01,15,44,21.80
2008,07,01,15,45,21.80
2008,07,01,15,46,21.70
2008,07,01,15,47,21.70
2008,07,01,15,48,21.70
2008,07,01,15,49,21.80
2008,07,01,15,50,21.80
2008,07,01,15,51,21.90
2008,07,01,15,52,22.00
2008,07,01,15,53,22.20
2008,07,01,15,54,22.20
2008,07,01,15,55,22.20
2008,07,01,15,56,22.10
2008,07,01,15,57,22.00
2008,07,01,15,58,22.00
2008,07,01,15,59,21.90
2008,07,01,16,00,21.90
2008,07,01,16,01,21.90
2008,07,01,16,02,21.90
2008,07,01,16,03,21.90
2008,07,01,16,04,21.90
2008,07,01,16,05,21.90
2008,07,01,16,06,21.80
2008,07,01,16,07,21.80
2008,07,01,16,08,21.80
2008,07,01,16,09,21.60
2008,07,01,16,10,21.60
2008,07,01,16,11,21.60
2008,07,01,16,12,21.70
2008,07,01,16,13,21.60
2008,07,01,16,14,21.50
2008,07,01,16,15,21.40
2008,07,01,16,16,21.40
2008,07,01,16,17,21.30
2008,07,01,16,18,21.30
2008,07,01,16,19,21.30
2008,07,01,16,20,21.20
2008,07,01,16,21,21.30
2008,07,01,16,22,21.40
2008,07,01,16,23,21.40
2008,07,01,16,24,21.50
2008,07,01,16,25,21.60
2008,07,01,16,26,21.60
2008,07,01,16,27,21.60
2008,07,01,16,28,21.60
2008,07,01,16,29,21.60
2008,07,01,16,30,21.50
2008,07,01,16,31,21.50
2008,07,01,16,32,21.50
2008,07,01,16,33,21.60
2008,07,01,16,34,21.60
2008,07,01,16,35,21.60
2008,07,01,16,36,21.50
2008,07,01,16,37,21.30
2008,07,01,16,38,21.30
2008,07,01,16,39,21.20
2008,07,01,16,40,21.20
2008,07,01,16,41,21.10
2008,07,01,16,42,21.00
2008,07,01,16,43,21.00
2008,07,01,16,44,20.90
2008,07,01,16,45,20.80
2008,07,01,16,46,20.70
2008,07,01,16,47,20.70
2008,07,01,16,48,20.70
2008,07,01,16,49,20.60
2008,07,01,16,50,20.50
2008,07,01,16,51,20.40
2008,07,01,16,52,20.40
2008,07,01,16,53,20.40
2008,07,01,16,54,20.40
2008,07,01,16,55,20.40
2008,07,01,16,56,20.40
2008,07,01,16,57,20.40
2008,07,01,16,58,20.40
2008,07,01,16,59,20.40
2008,07,01,17,00,20.40
2008,07,01,17,01,20.40
2008,07,01,17,02,20.40
2008,07,01,17,03,20.50
2008,07,01,17,04,20.60
2008,07,01,17,05,20.60
2008,07,01,17,06,20.60
2008,07,01,17,07,20.60
2008,07,01,17,08,20.50
2008,07,01,17,09,20.50
2008,07,01,17,10,20.40
2008,07,01,17,11,20.40
2008,07,01,17,12,20.40
2008,07,01,17,13,20.40
2008,07,01,17,14,20.40
2008,07,01,17,15,20.30
2008,07,01,17,16,20.30
2008,07,01,17,17,20.30
2008,07,01,17,18,20.40
2008,07,01,17,19,20.40